STARLINK-1563 (46078 NORAD) Tracking and Keplerian Element Data

This shows tracking and keplerian element data for the satellite.

Feedback or suggestion? Click here.




ElementValue
Catalog46078
NameSTARLINK-1563
Epoch Orbit1957
Epoch Day338.57151598
Epoch Year2020
RAAN85.3242
Inclination53.0045
Eccentricity0.0001365
Argument of Perigee97.0321
Mean Anonmoly263.0823
Mean Motion15.05577599
Decay Rate1.683E-05
L11 46078U 20055BD 20338.57151598 .00001683 00000-0 13465-3 0 9994
L22 46078 53.0045 85.3242 0001365 97.0321 263.0823 15.05577599 19574

Live tracking and technical data element details for STARLINK-1563 (NORAD 46078). STARLINK-1563 can be tracked NOW for your location showing map with azimuth and elevation plus other details from your city location.

Track the satellite on the map from your city or location and see movement details for azimuth, elevation, latitude, longitude, range, height, and movement on the map or in text.







IsCatalogInMostPopularTable: catalog: 46078, numindb: 27
Update: records affected: 1



GetName: 46078 STARLINK-1563

Hit Count: updated at: Sun, 06 Dec 2020 01:09:15 GMT